Weather History for VTSB - August, 2013

Change the Weather History Date:

Monday, August 19, 2013

  Actual Average Record
Temperature  
Mean Temperature 82 °F -  
Max Temperature 95 °F 90 °F - ()
Min Temperature 70 °F 73 °F - ()
Cooling Degree Days 18    
Growing Degree Days 32 (Base 50)    
Moisture  
Dew Point 72 °F    
Average Humidity 70    
Maximum Humidity 100    
Minimum Humidity 42    
Precipitation  
Precipitation 0.00 in 0.23 in - ()
Sea Level Pressure  
Sea Level Pressure 29.80 in    
Wind  
Wind Speed 5 mph ()    
Max Wind Speed 16 mph    
Max Gust Speed -    
Visibility 5.5 miles    
Events      
T = Trace of Precipitation, MM = Missing Value Source: Averaged Metar Reports

Daily Weather History Graph

Daily Weather History Graph

Search for Another Location

Airport or City:

Trip Planner

Search our weather history database for the weather conditions in past years. The results will help you decide how hot, cold, wet, or windy it might be!

Date:

Astronomy

Aug. 19, 2013 Rise Set
Actual Time 6:15 AM ICT 6:38 PM ICT
Civil Twilight 5:53 AM ICT 7:00 PM ICT
Nautical Twilight 5:28 AM ICT 7:25 PM ICT
Astronomical Twilight 5:03 AM ICT 7:50 PM ICT
Moon 5:00 PM ICT (8/19) 4:09 AM ICT (8/19)
Length of Visible Light 13h 06m
Length of Day
12h 23m
Waxing Gibbous, 95% of the Moon is Illuminated
Aug 19
Waxing Gibbous
Aug 21
Full
Aug 28
Last Quarter
Sep 5
New
Sep 13
First Quarter

Hourly Weather History & Observations

Time (ICT) Temp. Heat Index Dew Point Humidity Pressure Visibility Wind Dir Wind Speed Gust Speed Precip Events Conditions
1:00 AM 73 °F - 71 °F 90% 29.84 in 4 mi Calm Calm - -   Mist
6:00 AM 69.8 °F - 69.8 °F 100% 29.80 in 3.1 mi Calm Calm - N/A   Partly Cloudy
7:00 AM 71 °F - 70 °F 95% 29.81 in 5 mi Calm Calm - -   Mist
7:00 AM 71.6 °F - 71.6 °F 100% 29.80 in 3.7 mi Calm Calm - N/A   Partly Cloudy
8:00 AM 77.0 °F - 73.4 °F 89% 29.83 in 4.3 mi WSW 4.6 mph - N/A   Partly Cloudy
9:00 AM 82.4 °F 89.5 °F 75.2 °F 79% 29.83 in 6.2 mi SSW 6.9 mph - N/A   Partly Cloudy
10:00 AM 86.0 °F 93.4 °F 73.4 °F 66% 29.86 in 6.2 mi SSW 5.8 mph - N/A   Partly Cloudy
11:00 AM 87.8 °F 93.8 °F 71.6 °F 58% 29.83 in 6.2 mi SW 12.7 mph - N/A   Scattered Clouds
12:00 PM 89.6 °F 96.2 °F 71.6 °F 55% 29.83 in 6.2 mi WSW 12.7 mph - N/A   Scattered Clouds
1:00 PM 93 °F - 72 °F 42% 29.79 in 6 mi West 6.9 mph - -   Scattered Clouds
1:00 PM 91.4 °F 98.4 °F 71.6 °F 52% 29.77 in 6.2 mi West 12.7 mph - N/A   Scattered Clouds
2:00 PM 93.2 °F 100.5 °F 71.6 °F 49% 29.77 in 6.2 mi WSW 13.8 mph - N/A   Scattered Clouds
3:00 PM 91.4 °F 98.4 °F 71.6 °F 52% 29.74 in 6.2 mi WSW 16.1 mph - N/A   Partly Cloudy
4:00 PM 91.4 °F 96.8 °F 69.8 °F 49% 29.74 in 6.2 mi WSW 12.7 mph - N/A   Partly Cloudy
5:00 PM 89.6 °F 94.7 °F 69.8 °F 52% 29.74 in 6.2 mi WSW 11.5 mph - N/A   Partly Cloudy
6:00 PM 87.8 °F 93.8 °F 71.6 °F 58% 29.74 in 6.2 mi WSW 11.5 mph - N/A   Partly Cloudy
7:00 PM 85 °F - 72 °F 58% 29.78 in 6 mi WNW 3.5 mph - -   Scattered Clouds
7:00 PM 84.2 °F 89.6 °F 71.6 °F 66% 29.77 in 6.2 mi West 6.9 mph - N/A   Partly Cloudy
8:00 PM 82.4 °F 87.2 °F 71.6 °F 70% 29.80 in 6.2 mi West 6.9 mph - N/A   Partly Cloudy
9:00 PM 77.0 °F - 73.4 °F 89% 29.83 in 5.0 mi SW 5.8 mph - N/A   Partly Cloudy
11:00 PM 75.2 °F - 73.4 °F 94% 29.86 in 5.0 mi SW 4.6 mph - N/A   Partly Cloudy